UAE316 RPVM-RPLC

Flight info

Callsign UAE316
Flight time 0h 56m
Altitude 34000
Route MOLOC4P MOLOC W11 MIA W16 OLIVA OLIVA5R
Aircraft B77W/H-SDE1E2E3FGHIJ2J3J4J5M1RWXY/LB1D1

Departure

Time 2026-04-28 21:52
Airport Mactan Cebu International Airport (RPVM)

Arrival

Time 2026-04-28 22:48
Airport Clark International Airport / Clark Air Base (RPLC)
Time Latitude Longitude Altitude Speed Heading
2026-04-28 21:23 10.31265 123.97789 43 ft 0 kts 259°
2026-04-28 21:24 10.31355 123.97792 42 ft 0 kts 314°
2026-04-28 21:41 10.31352 123.97795 43 ft 3 kts 310°
2026-04-28 21:41 10.31346 123.97811 42 ft 4 kts 242°
2026-04-28 21:41 10.31347 123.97826 39 ft 3 kts 311°
2026-04-28 21:41 10.31327 123.97842 38 ft 4 kts 341°
2026-04-28 21:42 10.31301 123.97850 39 ft 3 kts 328°
2026-04-28 21:42 10.31290 123.97846 38 ft 3 kts 233°
2026-04-28 21:42 10.31286 123.97842 38 ft 3 kts 223°
2026-04-28 21:42 10.31262 123.97829 42 ft 4 kts 208°
2026-04-28 21:43 10.31248 123.97817 42 ft 0 kts 39°
2026-04-28 21:46 10.31265 123.97831 41 ft 13 kts 39°
2026-04-28 21:47 10.31299 123.97909 41 ft 12 kts 116°
2026-04-28 21:47 10.31236 123.97973 44 ft 15 kts 156°
2026-04-28 21:47 10.31167 123.97947 44 ft 11 kts 217°
2026-04-28 21:47 10.31106 123.97886 43 ft 14 kts 225°
2026-04-28 21:48 10.31028 123.97816 43 ft 16 kts 226°
2026-04-28 21:48 10.30952 123.97736 43 ft 16 kts 225°
2026-04-28 21:48 10.30876 123.97658 43 ft 16 kts 225°
2026-04-28 21:48 10.30798 123.97580 43 ft 16 kts 224°
2026-04-28 21:49 10.30714 123.97499 44 ft 22 kts 224°
2026-04-28 21:49 10.30590 123.97375 44 ft 25 kts 225°
2026-04-28 21:49 10.30466 123.97248 44 ft 25 kts 225°
2026-04-28 21:49 10.30341 123.97121 43 ft 26 kts 225°
2026-04-28 21:50 10.30201 123.96983 43 ft 29 kts 224°
2026-04-28 21:50 10.30059 123.96839 43 ft 29 kts 225°
2026-04-28 21:50 10.29926 123.96712 43 ft 19 kts 206°
2026-04-28 21:50 10.29840 123.96751 42 ft 15 kts 135°
2026-04-28 21:51 10.29765 123.96827 40 ft 16 kts 135°
2026-04-28 21:51 10.29737 123.96916 38 ft 14 kts 61°
2026-04-28 21:51 10.29787 123.96974 38 ft 1 kts 44°
2026-04-28 21:51 10.29795 123.96982 38 ft 11 kts 45°
2026-04-28 21:52 10.30146 123.97338 40 ft 139 kts 44°
2026-04-28 21:52 10.31074 123.98273 634 ft 216 kts 45°
2026-04-28 21:52 10.32121 123.99337 2664 ft 220 kts 46°
2026-04-28 21:52 10.33371 124.00290 3569 ft 238 kts 21°
2026-04-28 21:53 10.35088 124.00345 4356 ft 261 kts 349°
2026-04-28 21:53 10.36873 123.99833 5314 ft 271 kts 346°
2026-04-28 21:53 10.38702 123.99311 6497 ft 275 kts 347°
2026-04-28 21:53 10.40563 123.98796 7639 ft 279 kts 347°
2026-04-28 21:54 10.42437 123.98289 8723 ft 285 kts 347°
2026-04-28 21:54 10.44374 123.97775 9829 ft 291 kts 348°
2026-04-28 21:54 10.46364 123.97254 10715 ft 304 kts 348°
2026-04-28 21:54 10.48514 123.96702 11090 ft 336 kts 348°
2026-04-28 21:55 10.50884 123.96096 11503 ft 361 kts 348°
2026-04-28 21:55 10.53361 123.95462 12391 ft 372 kts 348°
2026-04-28 21:55 10.55898 123.94812 13404 ft 379 kts 348°
2026-04-28 21:55 10.58473 123.94156 14361 ft 384 kts 348°
2026-04-28 21:56 10.61081 123.93493 15294 ft 389 kts 348°
2026-04-28 21:56 10.63667 123.92787 16129 ft 392 kts 342°
2026-04-28 21:56 10.66066 123.91388 16823 ft 407 kts 320°
2026-04-28 21:56 10.67962 123.89232 17605 ft 412 kts 310°
2026-04-28 21:57 10.69807 123.86966 18366 ft 420 kts 311°
2026-04-28 21:57 10.71697 123.84692 19217 ft 422 kts 311°
2026-04-28 21:57 10.73608 123.82418 20109 ft 423 kts 312°
2026-04-28 21:57 10.75531 123.80144 20949 ft 426 kts 312°
2026-04-28 21:58 10.77478 123.77845 21736 ft 431 kts 312°
2026-04-28 21:58 10.79439 123.75530 22496 ft 435 kts 311°
2026-04-28 21:58 10.81395 123.73218 23256 ft 439 kts 311°
2026-04-28 21:58 10.83395 123.70851 23911 ft 443 kts 311°
2026-04-28 21:59 10.85407 123.68468 24487 ft 447 kts 311°
2026-04-28 21:59 10.87446 123.66050 25061 ft 452 kts 311°
2026-04-28 21:59 10.89506 123.63608 25640 ft 457 kts 311°
2026-04-28 22:00 10.93685 123.58652 26751 ft 466 kts 311°
2026-04-28 22:00 10.95806 123.56135 27304 ft 470 kts 311°
2026-04-28 22:00 10.97913 123.53635 27873 ft 474 kts 311°
2026-04-28 22:00 11.00085 123.51088 28425 ft 478 kts 313°
2026-04-28 22:01 11.02538 123.48863 28891 ft 482 kts 324°
2026-04-28 22:01 11.04265 123.47624 29412 ft 480 kts 326°
2026-04-28 22:01 11.07046 123.45758 30211 ft 477 kts 327°
2026-04-28 22:02 11.09847 123.43924 30768 ft 480 kts 327°
2026-04-28 22:02 11.12651 123.42075 31419 ft 478 kts 327°
2026-04-28 22:02 11.15410 123.40221 32173 ft 476 kts 326°
2026-04-28 22:02 11.18143 123.38354 32642 ft 480 kts 326°
2026-04-28 22:03 11.20903 123.36441 33261 ft 479 kts 325°
2026-04-28 22:03 11.23649 123.34525 33863 ft 476 kts 325°
2026-04-28 22:03 11.26358 123.32628 33916 ft 474 kts 325°
2026-04-28 22:04 11.31806 123.28810 33938 ft 476 kts 325°
2026-04-28 22:04 11.37259 123.24992 33933 ft 474 kts 325°
2026-04-28 22:05 11.42651 123.21219 33921 ft 472 kts 325°
2026-04-28 22:05 11.48048 123.17441 33924 ft 470 kts 324°
2026-04-28 22:06 11.53447 123.13660 33939 ft 471 kts 324°
2026-04-28 22:06 11.58852 123.09872 33937 ft 472 kts 324°
2026-04-28 22:07 11.64246 123.06091 33931 ft 475 kts 324°
2026-04-28 22:07 11.69697 123.02267 33933 ft 476 kts 324°
2026-04-28 22:08 11.75154 122.98438 33935 ft 476 kts 324°
2026-04-28 22:08 11.80600 122.94615 33924 ft 474 kts 324°
2026-04-28 22:09 11.86025 122.90804 33924 ft 472 kts 324°
2026-04-28 22:09 11.91394 122.87032 33922 ft 471 kts 324°
2026-04-28 22:10 11.96784 122.83241 33931 ft 470 kts 324°
2026-04-28 22:10 12.02165 122.79456 33923 ft 470 kts 324°
2026-04-28 22:11 12.07543 122.75670 33937 ft 470 kts 324°
2026-04-28 22:11 12.12887 122.71907 33931 ft 470 kts 324°
2026-04-28 22:12 12.18261 122.68121 33937 ft 470 kts 324°
2026-04-28 22:12 12.23646 122.64325 33938 ft 470 kts 324°
2026-04-28 22:13 12.29029 122.60527 33931 ft 470 kts 324°
2026-04-28 22:13 12.34377 122.56753 33938 ft 470 kts 324°
2026-04-28 22:14 12.39768 122.52948 33933 ft 471 kts 323°
2026-04-28 22:14 12.45167 122.49132 33934 ft 472 kts 323°
2026-04-28 22:15 12.50562 122.45316 33935 ft 471 kts 324°
2026-04-28 22:15 12.55912 122.41530 33933 ft 470 kts 324°
2026-04-28 22:16 12.61284 122.37727 33932 ft 470 kts 324°
2026-04-28 22:16 12.66656 122.33921 33932 ft 470 kts 323°
2026-04-28 22:17 12.72035 122.30107 33942 ft 470 kts 324°
2026-04-28 22:17 12.77413 122.26292 33936 ft 470 kts 324°
2026-04-28 22:18 12.82755 122.22502 33928 ft 470 kts 324°
2026-04-28 22:18 12.88132 122.18685 33933 ft 470 kts 324°
2026-04-28 22:19 12.93502 122.14870 33933 ft 470 kts 324°
2026-04-28 22:19 12.98873 122.11052 33937 ft 470 kts 324°
2026-04-28 22:20 13.04202 122.07262 33939 ft 469 kts 324°
2026-04-28 22:20 13.09567 122.03446 33939 ft 469 kts 324°
2026-04-28 22:21 13.14931 121.99627 33941 ft 470 kts 324°
2026-04-28 22:21 13.20304 121.95800 33939 ft 470 kts 324°
2026-04-28 22:22 13.25640 121.91997 33944 ft 470 kts 324°
2026-04-28 22:22 13.30976 121.88192 33943 ft 470 kts 324°
2026-04-28 22:23 13.36341 121.84365 33941 ft 469 kts 324°
2026-04-28 22:23 13.41699 121.80540 33945 ft 468 kts 324°
2026-04-28 22:24 13.47001 121.76753 33942 ft 467 kts 324°
2026-04-28 22:24 13.52334 121.72941 33940 ft 467 kts 324°
2026-04-28 22:25 13.57558 121.69207 33888 ft 446 kts 323°
2026-04-28 22:25 13.60114 121.67378 33231 ft 448 kts 323°
2026-04-28 22:25 13.62663 121.65553 32791 ft 444 kts 323°
2026-04-28 22:25 13.65189 121.63745 32314 ft 441 kts 323°
2026-04-28 22:26 13.67701 121.61946 31869 ft 438 kts 323°
2026-04-28 22:26 13.70160 121.60186 31436 ft 435 kts 323°
2026-04-28 22:26 13.72634 121.58414 30992 ft 432 kts 323°
2026-04-28 22:26 13.75097 121.56651 30540 ft 430 kts 323°
2026-04-28 22:27 13.77543 121.54898 30093 ft 427 kts 323°
2026-04-28 22:27 13.79970 121.53156 29593 ft 425 kts 323°
2026-04-28 22:27 13.82351 121.51449 29124 ft 422 kts 323°
2026-04-28 22:27 13.84727 121.49743 28667 ft 419 kts 323°
2026-04-28 22:28 13.87110 121.48033 28208 ft 416 kts 323°
2026-04-28 22:28 13.89439 121.46360 27773 ft 413 kts 323°
2026-04-28 22:28 13.91786 121.44675 27315 ft 410 kts 323°
2026-04-28 22:28 13.94133 121.42988 26722 ft 412 kts 323°
2026-04-28 22:29 13.96477 121.41304 26249 ft 410 kts 324°
2026-04-28 22:29 13.98809 121.39628 25805 ft 408 kts 324°
2026-04-28 22:29 14.01130 121.37959 25360 ft 406 kts 324°
2026-04-28 22:29 14.03438 121.36299 24923 ft 404 kts 324°
2026-04-28 22:30 14.05738 121.34645 24481 ft 403 kts 324°
2026-04-28 22:30 14.08032 121.32995 24044 ft 401 kts 324°
2026-04-28 22:30 14.10311 121.31353 23612 ft 399 kts 324°
2026-04-28 22:30 14.12551 121.29738 23119 ft 398 kts 324°
2026-04-28 22:31 14.14806 121.28109 22659 ft 395 kts 324°
2026-04-28 22:31 14.17041 121.26495 22212 ft 391 kts 324°
2026-04-28 22:31 14.19269 121.24886 21781 ft 388 kts 324°
2026-04-28 22:31 14.21474 121.23294 21352 ft 386 kts 324°
2026-04-28 22:32 14.23666 121.21710 20925 ft 384 kts 325°
2026-04-28 22:32 14.25846 121.20141 20507 ft 381 kts 325°
2026-04-28 22:32 14.28020 121.18582 20083 ft 379 kts 325°
2026-04-28 22:32 14.30181 121.17031 19670 ft 378 kts 325°
2026-04-28 22:33 14.32337 121.15484 19231 ft 377 kts 325°
2026-04-28 22:33 14.34454 121.13963 18815 ft 376 kts 325°
2026-04-28 22:33 14.36598 121.12422 18391 ft 375 kts 325°
2026-04-28 22:33 14.38731 121.10888 17919 ft 375 kts 326°
2026-04-28 22:34 14.40870 121.09350 17472 ft 373 kts 325°
2026-04-28 22:34 14.42985 121.07828 17038 ft 371 kts 325°
2026-04-28 22:34 14.45099 121.06306 16609 ft 369 kts 325°
2026-04-28 22:34 14.47194 121.04799 16192 ft 367 kts 325°
2026-04-28 22:35 14.49286 121.03292 15784 ft 365 kts 326°
2026-04-28 22:35 14.51368 121.01800 15369 ft 364 kts 326°
2026-04-28 22:35 14.53476 121.00356 14955 ft 363 kts 327°
2026-04-28 22:35 14.55586 120.98943 14526 ft 362 kts 327°
2026-04-28 22:36 14.57702 120.97531 14118 ft 361 kts 327°
2026-04-28 22:36 14.59776 120.96142 13710 ft 361 kts 327°
2026-04-28 22:36 14.61883 120.94725 13244 ft 360 kts 327°
2026-04-28 22:36 14.63975 120.93314 12796 ft 359 kts 327°
2026-04-28 22:37 14.66056 120.91909 12382 ft 357 kts 327°
2026-04-28 22:37 14.68137 120.90503 11990 ft 355 kts 327°
2026-04-28 22:37 14.70187 120.89119 11620 ft 352 kts 327°
2026-04-28 22:37 14.72235 120.87732 11212 ft 351 kts 327°
2026-04-28 22:38 14.74265 120.86345 10832 ft 350 kts 327°
2026-04-28 22:38 14.76300 120.84951 10440 ft 349 kts 327°
2026-04-28 22:38 14.78314 120.83570 10156 ft 344 kts 327°
2026-04-28 22:38 14.80284 120.82220 9986 ft 336 kts 327°
2026-04-28 22:39 14.82198 120.80908 9733 ft 332 kts 327°
2026-04-28 22:39 14.84095 120.79608 9586 ft 322 kts 327°
2026-04-28 22:39 14.85941 120.78343 9290 ft 317 kts 327°
2026-04-28 22:39 14.87796 120.77072 8751 ft 322 kts 327°
2026-04-28 22:40 14.89671 120.75788 8211 ft 325 kts 327°
2026-04-28 22:40 14.91563 120.74491 7714 ft 328 kts 327°
2026-04-28 22:40 14.93439 120.73156 7060 ft 329 kts 321°
2026-04-28 22:40 14.94872 120.71284 6310 ft 339 kts 295°
2026-04-28 22:41 14.95479 120.68957 5536 ft 329 kts 278°
2026-04-28 22:41 14.95771 120.66704 4794 ft 314 kts 278°
2026-04-28 22:41 14.96090 120.64507 4056 ft 302 kts 279°
2026-04-28 22:41 14.96407 120.62416 3481 ft 287 kts 279°
2026-04-28 22:42 14.96710 120.60435 3135 ft 269 kts 279°
2026-04-28 22:42 14.97129 120.58534 3033 ft 275 kts 289°
2026-04-28 22:42 14.97817 120.56695 3020 ft 272 kts 293°
2026-04-28 22:42 14.98513 120.54920 3006 ft 259 kts 292°
2026-04-28 22:43 14.99151 120.53250 3013 ft 239 kts 292°
2026-04-28 22:43 14.99724 120.51729 2981 ft 219 kts 294°
2026-04-28 22:43 15.00561 120.50567 2978 ft 190 kts 329°
2026-04-28 22:43 15.01686 120.50257 2962 ft 153 kts 13°
2026-04-28 22:44 15.02732 120.50427 3035 ft 153 kts 13°
2026-04-28 22:44 15.03744 120.50629 3028 ft 144 kts 19°
2026-04-28 22:44 15.04691 120.50871 3031 ft 138 kts 19°
2026-04-28 22:44 15.05630 120.51148 3029 ft 142 kts 23°
2026-04-28 22:45 15.06563 120.51483 3025 ft 143 kts 25°
2026-04-28 22:45 15.07512 120.51848 2813 ft 145 kts 26°
2026-04-28 22:45 15.08438 120.52211 2610 ft 140 kts 25°
2026-04-28 22:45 15.09339 120.52567 2400 ft 141 kts 25°
2026-04-28 22:46 15.10263 120.52932 2194 ft 143 kts 25°
2026-04-28 22:46 15.11180 120.53297 1972 ft 140 kts 25°
2026-04-28 22:46 15.12079 120.53655 1757 ft 138 kts 24°
2026-04-28 22:46 15.12976 120.54010 1562 ft 138 kts 24°
2026-04-28 22:47 15.13875 120.54367 1341 ft 138 kts 24°
2026-04-28 22:47 15.14777 120.54725 1109 ft 139 kts 22°
2026-04-28 22:47 15.15678 120.55075 899 ft 137 kts 21°
2026-04-28 22:47 15.16569 120.55426 736 ft 139 kts 21°
2026-04-28 22:48 15.17475 120.55797 505 ft 140 kts 20°
2026-04-28 22:48 15.18326 120.56132 458 ft 118 kts 21°
2026-04-28 22:48 15.18981 120.56391 456 ft 83 kts 20°
2026-04-28 22:48 15.19405 120.56556 455 ft 48 kts 20°
2026-04-28 22:49 15.19565 120.56618 457 ft 27 kts 15°
2026-04-28 22:49 15.19661 120.56509 455 ft 18 kts 296°
2026-04-28 22:49 15.19688 120.56398 454 ft 10 kts 258°
2026-04-28 22:49 15.19629 120.56354 454 ft 12 kts 199°
2026-04-28 22:50 15.19542 120.56316 454 ft 15 kts 203°
2026-04-28 22:50 15.19440 120.56262 454 ft 17 kts 234°
2026-04-28 22:50 15.19477 120.56205 454 ft 8 kts
2026-04-28 22:50 15.19529 120.56220 454 ft 0 kts 20°
2026-04-28 22:51 15.19530 120.56221 454 ft 0 kts 20°